COSMOS 2500 (755)

Last updated on Oct. 24, 2020, 5:55 a.m. UTC

1 40001U 14032A   20297.64548008 -.00000091  00000-0  00000-0 0  9991
2 40001  65.7287  23.2104 0008344 198.8791 155.9623  2.13102505 49492
UTC
Height (km)
Latitude
Longitude
Inclination
Orbital Period
UTC large
Height (km)
Speed (km/s)
/
Latitude / Longitude
Inclination (degrees)
Orbital Period (minutes)
Azimuth
Elevation
Range (km)
Doppler Factor
iOS Compass Heading
iOS Angle

Next 30 passes for location: Hong Kong

Rise time Rise Azimuth (degrees) Set time Set Azimuth (degrees) Duration Max altitude (degrees)

No matching passes for this satellites